Theta_e
307 309 310 310 310 309 309 310 309 309 308 309 308 308 308 310 311 310 309 310 313 311 308 307 307 306 305 307 310 309 314 313 313 312 314 315 316 316 316 315 314 316 316 315 314 324 322 323 323 324 326 327 327 327 328 328 329 328 328 328 327 326 326 328 330 327 323 322 319 319 321 321 322 321 320 323 324 324 323 324 324 324 324 324 325
306 307 309 308 308 308 309 309 310 307 308 308 308 308 308 310 311 311 309 310 311 311 311 307 304 307 305 306 307 310 312 310 311 311 312 315 314 313 313 312 313 314 316 315 316 314 315 316 318 319 320 321 323 325 326 327 326 326 327 325 329 327 325 330 331 327 320 318 317 316 316 318 320 320 319 320 322 323 323 324 324 325 325 325 325
304 307 308 308 308 308 309 309 308 309 308 308 307 307 308 310 310 310 310 311 310 312 309 306 306 307 305 305 310 308 308 310 309 314 315 312 310 312 312 311 312 312 314 317 316 315 315 316 316 318 320 322 320 321 322 322 323 325 326 323 322 326 327 330 329 327 323 321 319 317 312 314 315 316 318 319 320 320 321 322 323 324 326 327 326
303 306 307 308 308 308 308 308 308 307 308 308 307 307 309 312 310 310 310 310 310 312 312 307 308 307 307 309 308 308 309 315 309 308 310 311 311 310 311 310 310 311 313 315 314 313 313 314 315 317 318 318 318 317 318 320 321 322 324 325 325 321 323 324 330 328 326 323 317 316 313 311 310 313 314 317 319 319 319 320 322 323 324 326 326
304 305 307 307 307 307 308 308 307 307 308 308 307 307 311 311 311 311 311 311 311 314 310 310 311 310 311 311 312 310 310 308 309 309 308 314 310 308 310 310 311 311 312 313 316 312 312 313 314 314 315 315 316 315 315 316 318 319 322 323 323 321 320 322 325 328 327 328 322 317 314 312 312 314 314 315 316 317 318 319 319 320 322 322 323
304 305 307 308 308 308 307 307 307 306 307 309 309 308 310 311 311 311 310 310 312 310 310 311 311 311 310 308 306 306 306 307 306 308 307 309 307 308 310 310 311 309 310 312 315 314 312 311 312 313 313 314 315 313 313 314 315 315 317 319 318 322 323 322 321 324 327 327 326 326 322 315 315 318 316 310 316 317 318 319 319 319 319 320 321
304 306 307 307 308 307 307 307 307 307 308 309 309 308 310 312 311 312 311 311 311 309 310 312 308 310 310 309 308 308 307 306 303 303 308 306 307 308 308 308 309 310 310 308 311 312 311 310 311 312 314 314 315 313 313 313 314 316 316 315 316 318 321 319 320 322 324 326 327 327 327 325 324 319 314 315 313 316 318 317 319 320 319 318 319
304 305 307 308 308 308 307 308 308 308 308 309 309 309 310 311 311 312 312 313 311 310 310 310 309 308 308 307 310 308 309 309 305 305 305 309 306 308 309 308 307 310 309 309 309 312 310 309 309 310 312 315 315 313 312 312 313 315 315 314 315 316 316 315 316 319 318 320 324 323 324 326 327 326 324 319 317 314 317 322 322 321 320 320 319
305 306 307 307 308 308 308 308 309 307 308 309 309 309 311 312 312 312 312 312 311 310 310 308 310 309 308 308 309 308 309 308 307 310 308 310 306 308 308 307 306 306 310 310 308 311 314 308 306 308 309 312 314 312 311 312 311 311 312 312 312 313 314 314 313 314 316 316 318 321 323 323 324 325 325 324 319 316 316 318 319 321 320 320 320
305 307 308 308 309 309 309 309 308 308 308 310 309 310 312 312 312 312 311 311 310 310 310 308 308 310 308 308 309 308 308 306 307 307 307 305 306 305 306 306 306 305 306 308 308 308 308 309 307 307 308 312 312 309 309 309 309 310 309 310 310 311 312 313 312 311 313 314 316 317 316 317 320 322 323 322 322 321 315 317 319 318 317 320 320
304 306 308 308 309 308 308 307 308 307 307 309 310 310 312 312 312 312 311 311 310 310 309 308 309 309 308 309 309 309 307 307 306 305 305 305 304 305 305 304 305 306 305 306 306 308 309 313 307 308 309 313 310 308 307 307 307 308 308 308 308 308 308 310 311 312 311 311 312 314 314 315 315 314 316 319 319 318 318 318 319 321 320 319 322
304 306 307 307 306 306 307 306 306 307 307 308 309 310 312 313 313 312 311 310 310 310 309 308 310 309 308 309 309 309 308 308 307 307 307 307 305 306 305 305 305 306 305 306 305 306 309 306 308 307 309 306 307 306 307 308 307 307 307 307 306 306 306 308 305 307 308 309 310 312 312 314 316 316 317 318 317 317 317 317 318 320 321 321 323
303 305 306 306 306 306 307 307 306 306 307 308 309 311 312 313 313 312 312 310 310 310 309 308 309 309 309 309 309 310 308 308 307 306 307 307 306 305 303 304 304 306 306 306 305 305 309 305 306 306 306 308 306 306 305 305 306 306 306 304 304 305 305 305 305 304 305 307 307 309 310 310 311 314 316 317 318 319 318 315 317 319 316 318 320
300 302 305 306 307 307 308 308 308 308 308 309 309 310 312 313 314 313 312 311 310 309 309 308 309 309 309 309 309 310 309 308 307 307 307 307 307 307 306 306 305 305 305 306 306 306 307 308 307 305 305 306 307 305 305 306 304 306 304 304 303 304 304 304 304 305 304 305 305 305 307 308 309 311 313 314 315 315 314 314 314 316 317 317 319
300 301 303 305 307 308 308 309 309 309 309 309 309 311 312 312 314 313 313 312 310 310 309 309 309 309 309 309 309 309 309 309 308 307 307 306 306 307 307 305 305 305 306 306 307 306 305 304 305 305 304 303 305 304 306 304 305 304 306 305 305 303 303 304 303 302 304 303 303 304 305 307 307 309 311 311 313 314 315 315 314 310 312 315 314
299 302 303 304 306 308 309 309 310 310 310 310 310 311 312 312 314 314 314 313 310 310 309 309 309 310 309 308 308 309 310 309 308 308 308 307 307 308 307 306 306 304 303 305 305 305 304 305 306 302 303 304 305 304 303 303 303 303 303 302 301 308 303 302 302 302 302 302 303 303 304 304 305 307 309 310 311 313 313 315 315 314 310 308 313
296 300 303 304 305 306 308 309 310 310 310 310 311 312 312 313 313 313 314 313 311 310 310 309 309 309 309 309 308 308 308 308 308 307 307 307 307 307 307 306 304 304 305 305 305 302 303 303 303 303 302 302 302 303 303 302 302 302 301 301 301 301 304 302 302 301 302 302 302 302 303 303 304 305 306 309 310 311 312 314 316 314 314 310 309
296 298 300 303 305 305 306 307 307 308 310 311 312 312 313 314 313 314 314 313 312 311 310 309 308 309 309 308 308 309 309 309 308 308 307 307 306 306 304 305 305 306 307 308 305 303 304 309 302 303 301 302 303 302 302 302 302 301 301 300 301 301 301 301 302 302 301 301 303 302 301 301 302 303 304 305 306 307 308 310 312 314 316 312 312
296 296 298 299 302 305 304 305 306 307 308 309 311 312 311 312 313 314 314 314 313 312 311 310 309 309 310 309 308 308 308 308 308 308 308 307 307 306 306 306 304 305 308 306 303 303 303 301 300 301 302 302 301 300 302 301 301 300 301 301 300 300 300 299 299 301 301 302 301 300 300 301 301 302 302 303 304 305 306 307 309 311 311 312 312
294 295 296 297 299 302 304 306 306 306 306 307 310 310 311 312 312 313 313 312 312 311 311 310 309 309 310 309 309 309 309 309 308 308 308 307 307 307 306 304 305 307 305 304 303 302 302 300 300 301 301 300 300 300 299 299 298 298 298 300 299 299 299 299 298 299 301 301 300 299 299 300 300 301 300 301 302 303 305 306 307 307 309 310 312
293 294 295 296 297 300 303 303 306 306 307 307 309 312 312 311 312 313 313 312 312 312 311 311 309 309 309 309 309 308 308 309 308 308 308 307 307 307 306 307 305 305 304 303 303 302 300 301 300 302 301 300 299 299 298 298 297 298 297 297 297 298 298 298 299 299 299 299 299 299 299 300 300 299 300 301 302 302 302 304 305 306 307 309 311
292 293 294 295 297 298 303 305 306 306 306 308 310 311 312 313 314 314 313 313 312 312 311 311 310 309 309 309 309 309 309 308 308 307 308 307 307 306 306 305 306 305 304 304 303 301 300 300 300 299 299 299 299 298 297 297 297 297 296 298 298 297 297 297 297 298 298 300 298 298 299 299 299 299 299 301 301 301 300 300 301 303 303 306 310
292 294 294 295 296 297 300 304 304 304 305 307 308 311 313 313 313 313 313 313 313 313 312 312 311 310 309 309 309 309 308 308 308 307 307 307 306 306 306 305 305 304 303 304 303 302 302 299 299 299 298 298 297 297 296 297 296 296 296 296 297 296 297 298 298 298 298 298 298 299 298 299 301 299 299 299 300 300 300 299 300 302 303 304 307
293 294 294 295 296 297 298 298 300 302 304 306 307 309 310 311 313 313 313 314 314 314 313 312 311 310 310 309 308 308 307 307 307 307 306 306 306 305 306 305 305 303 303 303 302 302 300 299 299 298 297 297 297 296 296 296 296 296 296 296 296 296 296 297 297 298 298 298 299 298 298 299 299 299 298 299 299 300 300 300 300 301 302 302 304
293 293 294 294 295 295 296 298 298 298 301 303 306 308 310 313 314 315 315 316 315 313 312 312 312 311 310 309 308 308 307 307 307 306 306 305 305 305 305 305 303 303 303 302 300 299 299 298 299 297 296 295 295 295 296 296 295 296 296 296 295 296 296 297 298 298 301 300 300 300 300 299 298 298 298 298 299 300 301 301 300 301 300 301 302
291 292 293 293 292 293 295 296 298 299 299 300 303 305 309 311 313 314 315 315 315 314 313 312 312 311 310 309 309 307 307 307 307 306 305 305 305 305 304 304 304 303 301 301 301 299 300 297 296 296 296 295 294 294 294 295 295 296 296 295 295 296 297 297 297 298 298 299 299 299 299 300 300 300 300 300 300 300 301 300 300 300 300 300 299
292 292 292 293 293 293 293 295 296 297 299 301 301 303 304 307 309 311 313 315 315 314 314 313 312 312 311 310 309 308 308 307 307 305 305 305 305 304 304 303 303 302 301 299 298 298 298 297 296 296 296 296 295 295 294 294 294 294 294 295 294 294 295 295 296 297 297 298 299 299 300 300 301 301 301 301 301 301 301 301 301 301 302 301 300
291 292 292 292 292 293 294 294 296 297 298 300 301 302 304 304 306 308 312 314 315 314 314 313 312 311 311 311 310 310 308 307 306 305 305 304 304 304 304 303 302 300 300 299 298 297 297 296 296 296 295 295 294 294 293 293 293 293 294 294 294 295 296 295 296 296 297 297 297 298 298 298 299 300 301 301 302 301 301 301 301 301 300 299 298
290 290 291 291 293 293 294 294 296 296 297 298 299 300 300 301 304 306 308 312 314 313 313 313 310 309 309 309 308 305 305 305 305 304 304 304 303 303 302 302 302 300 300 298 297 296 296 294 293 294 295 295 294 295 294 294 294 293 293 293 294 294 295 295 294 294 295 295 296 296 296 297 300 302 300 300 300 300 300 299 299 298 298 297 297
290 290 291 292 293 293 293 293 294 295 296 297 298 299 300 300 301 303 305 307 309 311 312 311 310 309 305 304 304 303 303 304 305 304 304 304 303 302 301 300 300 299 298 297 296 295 294 294 294 292 292 294 293 293 299 298 297 295 293 294 294 294 294 293 294 294 294 294 295 295 297 300 300 300 299 297 296 296 298 298 298 298 297 296 296
290 291 292 292 293 293 294 293 293 294 294 296 297 298 299 300 301 302 303 304 305 307 308 309 308 306 306 306 305 304 304 303 303 303 302 303 303 302 301 299 298 297 297 297 295 293 292 293 293 292 291 292 293 294 296 293 293 294 294 292 293 293 293 293 293 292 292 293 293 294 294 297 298 298 298 296 295 294 294 294 295 296 297 297 295
291 292 292 293 294 294 295 294 294 294 295 294 296 297 297 298 300 301 302 303 304 305 307 308 307 307 307 307 306 306 305 305 304 304 304 303 303 301 299 297 296 295 295 294 293 292 292 292 292 291 290 292 292 296 293 293 293 292 294 294 292 292 292 292 292 292 292 292 292 293 293 295 295 295 296 295 296 295 294 294 294 293 293 293 294
291 292 293 293 293 294 295 296 297 297 297 297 297 296 297 298 299 301 302 302 303 304 306 307 306 306 306 306 305 305 306 306 305 304 303 303 302 301 298 296 296 296 293 293 292 293 292 291 291 290 290 291 291 294 293 293 292 292 292 293 291 291 291 291 291 291 291 291 292 292 293 293 294 297 298 295 295 295 295 294 294 294 294 294 292
290 291 291 292 293 294 296 296 296 297 298 298 298 299 299 300 300 300 300 301 302 304 305 306 306 306 306 306 305 305 305 304 304 303 302 301 300 299 297 297 296 294 292 292 292 292 291 291 290 290 289 289 289 293 292 292 292 292 291 291 291 291 291 291 291 291 291 291 291 291 291 292 292 293 294 293 293 293 293 293 293 294 294 295 294
290 291 292 292 292 293 294 295 297 298 299 299 299 298 298 299 299 299 300 301 302 303 304 305 305 306 306 305 305 304 303 302 302 302 301 301 300 297 296 295 295 293 292 291 291 291 290 291 290 288 287 288 290 293 292 291 291 291 291 291 290 291 290 290 290 290 291 291 291 291 291 291 291 291 292 293 292 292 292 292 292 292 292 293 294
291 291 291 292 293 294 295 296 298 298 299 299 298 299 299 299 300 300 300 301 302 302 303 304 305 305 305 306 305 302 301 302 302 301 301 299 297 296 294 293 291 290 290 291 289 290 290 289 288 287 288 287 288 291 290 291 291 291 291 291 290 289 289 289 289 290 290 290 290 290 290 290 290 290 292 292 292 293 291 291 290 290 291 291 292
291 291 292 293 294 295 296 297 297 297 298 298 299 299 299 299 300 301 301 301 301 302 303 304 304 305 305 305 304 302 302 302 302 301 298 296 294 293 293 293 291 290 290 290 290 289 290 288 287 287 286 286 286 289 290 290 291 291 291 290 289 289 289 288 288 289 289 289 290 290 290 289 289 289 291 290 290 291 290 289 289 289 290 290 291
291 292 292 293 294 295 296 296 296 297 298 298 299 299 299 299 299 300 301 301 301 302 303 303 304 304 305 304 303 302 301 301 300 298 296 294 293 293 292 293 292 290 290 291 290 290 288 288 287 286 287 286 286 289 291 291 291 291 291 289 289 288 288 288 288 288 289 289 290 293 294 291 290 290 291 290 290 290 289 289 289 289 289 289 290
292 292 292 294 294 295 297 297 296 296 298 298 298 298 298 298 299 300 301 301 301 302 303 303 303 303 304 303 302 302 301 299 298 296 294 293 293 293 293 292 291 291 292 290 291 290 288 287 287 287 293 290 287 289 291 290 290 290 291 289 288 287 287 287 287 287 288 288 289 291 292 292 292 292 290 290 290 290 289 289 288 288 288 288 290
293 292 293 294 295 295 295 295 295 296 298 298 298 298 298 299 300 300 300 300 301 302 303 304 303 303 301 301 301 301 299 297 295 294 294 293 293 292 290 290 289 290 290 289 291 289 288 288 287 287 287 287 286 286 289 290 290 290 290 290 288 287 286 286 287 287 288 288 289 289 290 290 289 289 289 289 289 289 289 289 289 288 287 287 290
292 293 294 293 293 294 294 295 297 297 298 298 298 298 298 299 299 299 299 301 302 303 303 302 301 300 300 299 298 298 296 295 294 294 294 293 292 291 290 289 288 287 287 287 288 287 287 286 285 285 285 284 286 286 287 289 289 290 290 289 287 287 287 287 287 287 287 287 287 288 289 290 289 289 289 289 289 289 289 289 288 288 289 290 291
292 293 293 293 293 294 294 295 296 297 298 298 299 298 298 298 298 298 299 301 302 301 300 300 300 300 299 298 298 297 297 295 294 294 292 290 289 290 290 289 286 286 286 286 285 286 285 283 281 282 284 283 286 290 287 289 289 289 289 289 288 287 288 288 287 287 287 287 287 288 288 289 289 288 288 288 289 288 288 289 289 289 289 289 289
291 291 293 293 293 294 295 295 297 298 299 300 301 299 299 298 297 298 300 300 299 300 300 300 299 299 298 298 297 296 295 295 294 293 292 289 287 288 286 286 285 285 285 285 283 282 282 282 280 281 281 282 283 285 289 287 288 289 289 289 289 288 288 289 287 286 287 287 288 288 289 289 288 288 288 288 288 288 288 288 288 288 288 288 288
291 292 293 294 294 295 295 296 297 299 301 302 302 299 297 296 296 297 296 298 299 300 300 299 299 298 298 298 297 296 295 294 293 292 291 289 287 286 286 287 285 286 285 283 281 282 281 282 281 281 283 282 283 282 286 288 288 288 288 288 288 288 288 288 288 287 287 288 287 288 288 288 288 288 288 288 288 288 288 288 288 288 288 288 288
291 292 293 294 294 294 295 296 298 299 301 302 300 296 293 293 294 294 296 298 299 300 299 298 298 298 297 297 296 295 295 295 293 292 290 288 285 286 286 283 285 284 283 283 281 281 282 282 282 283 281 282 282 283 283 286 287 288 288 288 288 288 288 288 287 288 288 288 288 288 288 288 288 288 287 288 288 288 287 287 287 287 288 288 287
291 292 293 294 295 295 296 297 298 300 301 300 299 297 295 296 298 298 299 300 300 299 298 297 297 297 296 296 295 294 294 293 291 291 290 288 288 286 286 286 285 284 283 283 282 282 282 281 281 281 281 282 282 282 283 284 286 288 288 288 288 288 288 288 288 288 288 288 287 287 287 287 287 288 288 287 287 287 287 287 287 288 288 287 287
291 293 294 294 295 295 297 297 297 299 300 300 299 298 298 298 298 299 299 299 297 297 296 296 296 296 296 295 294 293 292 290 289 288 288 288 288 287 288 287 285 284 282 282 283 283 283 282 281 281 281 281 282 282 283 283 284 284 285 287 287 287 288 288 288 288 288 287 287 288 287 287 287 287 287 287 287 288 287 287 288 288 288 288 287
292 293 294 295 295 296 297 297 297 299 300 299 298 297 298 298 299 299 298 297 296 295 295 295 295 295 294 293 292 288 289 288 288 289 288 286 286 287 286 286 284 283 282 282 282 282 283 283 282 281 281 281 282 282 283 283 284 285 286 286 287 287 287 286 286 286 287 287 287 287 287 287 287 286 286 286 287 287 287 286 287 287 287 288 288
292 293 294 295 296 297 297 297 298 299 299 298 298 298 299 298 298 298 298 296 295 294 294 295 295 294 292 291 291 290 289 288 287 287 285 285 286 285 286 284 282 282 284 284 282 282 283 282 282 282 281 281 281 282 284 286 286 287 286 286 286 286 286 286 286 287 286 286 286 285 285 285 285 285 285 285 285 286 286 286 287 287 287 288 288
293 294 295 296 297 298 298 297 297 299 298 298 297 297 298 299 299 298 298 295 294 294 294 293 292 291 290 290 289 288 288 288 287 287 288 287 285 286 285 284 282 286 287 287 287 283 283 282 281 283 283 282 283 285 287 287 287 287 287 287 287 287 287 286 286 286 286 284 284 284 284 284 284 285 284 285 285 285 286 286 286 287 287 287 287
293 293 294 295 297 297 297 297 298 298 297 297 296 297 297 299 298 298 297 295 294 292 291 290 290 289 289 289 288 288 288 287 287 287 287 287 287 286 287 287 287 288 287 287 287 288 287 286 285 284 285 286 286 287 287 287 288 287 287 287 287 287 286 286 286 285 284 284 283 283 284 284 285 285 284 285 285 286 286 286 287 287 287 287 287
Wind_Speed
6 6 8 8 6 5 5 7 7 6 6 7 8 7 8 8 7 7 4 4 6 5 4 6 5 3 3 4 6 2 3 2 3 2 3 2 2 3 3 3 3 3 3 3 3 3 2 2 1 2 2 1 2 2 3 1 1 2 4 3 5 4 1 2 3 4 5 6 2 2 3 1 2 3 6 6 6 6 4 5 6 5 7 7 7
5 6 6 4 4 5 5 7 8 10 7 8 10 9 8 7 7 7 4 4 4 5 4 4 4 6 5 5 4 3 4 4 1 1 2 2 2 2 3 3 4 4 3 3 4 3 3 2 2 2 2 1 1 2 2 0 0 2 1 0 2 0 2 1 0 2 2 2 3 4 3 3 1 3 4 4 5 5 5 6 6 6 7 7 6
5 9 6 7 6 6 6 7 7 8 9 9 9 8 7 7 6 5 5 5 4 4 4 4 2 2 3 4 6 3 0 1 2 1 2 3 3 2 2 3 4 4 4 4 4 3 4 3 2 2 2 1 2 4 3 3 2 3 1 1 1 0 1 1 2 0 2 3 1 3 2 1 3 1 1 3 5 5 5 6 6 7 8 7 6
13 14 15 8 6 7 5 7 7 6 8 7 8 9 8 7 6 5 6 4 4 4 4 2 4 3 3 6 2 3 3 2 3 3 3 3 3 2 1 2 3 3 3 4 3 3 4 4 3 4 4 2 4 5 6 6 6 5 2 1 0 1 0 1 1 2 2 3 1 2 1 0 4 2 3 4 4 6 6 7 6 7 7 6 5
14 11 9 9 9 12 13 8 6 8 9 9 9 9 8 9 8 7 7 6 5 4 5 5 6 5 6 4 4 5 4 4 3 1 1 1 2 2 1 1 3 2 3 4 4 4 3 4 5 4 4 3 4 6 6 5 4 4 4 3 3 2 3 2 2 1 1 1 1 1 2 1 3 2 4 5 1 3 5 7 6 6 6 7 7
13 17 16 16 15 10 6 8 10 9 10 10 9 10 9 8 7 6 5 5 5 5 6 7 7 8 7 7 5 3 3 3 3 5 2 2 3 1 0 0 2 2 2 3 3 3 4 3 4 4 4 5 5 5 4 5 6 6 5 5 6 6 2 3 2 3 2 1 3 2 1 1 3 3 3 3 4 2 2 2 4 5 5 5 6
8 8 12 13 11 8 9 11 12 12 9 7 8 9 9 8 8 7 7 6 5 5 6 7 7 7 9 9 7 7 7 4 2 2 3 2 0 1 1 1 1 2 1 2 3 3 3 3 4 4 4 4 3 5 6 5 4 4 4 6 5 5 6 5 6 5 4 1 0 2 3 3 4 2 3 2 4 5 3 2 2 2 3 4 5
14 15 16 16 14 15 17 17 13 12 8 8 9 8 9 9 8 8 6 6 5 6 6 7 9 7 6 6 6 6 7 7 5 4 2 1 2 1 0 0 1 0 1 1 2 3 3 3 3 4 5 4 4 5 5 3 5 4 5 4 5 6 5 5 3 5 5 4 6 4 3 3 4 4 5 5 5 6 8 5 3 3 3 3 4
17 15 16 16 14 14 14 14 12 8 10 12 12 9 8 8 7 5 6 6 6 7 8 6 8 9 8 7 6 4 5 4 3 1 3 1 3 0 0 1 1 1 0 0 1 2 3 3 4 4 4 4 5 5 4 5 6 5 6 7 6 6 5 3 3 4 4 4 5 4 4 3 2 3 4 4 4 5 6 5 7 4 3 4 4
15 18 19 18 16 17 15 9 8 12 9 7 7 7 8 7 8 8 7 6 6 8 7 7 6 8 7 7 8 6 4 2 4 4 4 2 4 2 1 0 1 1 1 0 0 2 3 4 4 4 4 4 4 5 4 5 5 5 4 4 4 5 4 5 4 3 3 3 3 3 3 4 3 2 2 2 4 6 8 6 5 6 8 6 3
14 15 16 19 14 6 7 12 11 6 6 8 9 9 9 10 10 10 9 7 7 9 8 8 6 7 8 8 8 8 5 5 4 3 3 2 3 4 2 2 0 1 2 1 1 0 2 2 3 4 3 3 4 5 5 4 4 4 3 4 4 5 4 4 4 4 4 4 4 4 4 5 4 4 6 6 5 5 5 6 4 4 6 9 7
16 15 16 9 6 8 8 7 9 9 7 9 9 10 11 11 10 11 8 8 7 9 8 8 7 7 6 8 8 8 8 7 8 7 6 6 4 5 3 1 1 0 0 1 0 1 1 3 3 4 4 4 4 3 3 4 3 3 4 4 3 3 3 3 3 4 4 3 4 4 3 4 4 5 6 6 7 6 7 8 7 6 6 6 6
12 15 12 9 11 11 12 10 8 10 13 14 14 12 10 10 12 13 12 10 10 9 9 8 7 7 8 8 7 7 7 7 7 7 6 6 6 4 3 3 2 1 2 1 2 1 1 2 3 3 3 3 3 3 3 3 3 4 3 3 3 3 3 3 4 3 3 3 3 2 2 3 3 3 4 6 6 6 6 7 5 5 7 8 6
5 5 6 11 11 12 12 13 14 14 14 14 13 11 10 11 12 14 14 11 9 8 9 8 8 8 7 8 8 7 7 7 7 7 7 6 7 6 6 6 6 5 3 4 3 1 1 3 3 3 3 2 1 2 3 3 3 3 3 3 3 2 3 3 3 2 3 2 2 3 3 3 2 3 4 4 5 7 7 7 8 6 6 7 6
9 5 4 6 12 13 13 14 14 14 15 14 11 11 10 11 12 13 12 10 10 11 9 9 9 7 7 7 8 7 8 7 7 7 7 7 6 6 6 4 6 5 5 4 1 2 3 4 4 4 3 2 1 2 2 2 1 2 1 1 1 1 3 2 2 2 2 1 2 2 2 4 3 3 4 4 3 4 5 6 7 10 7 5 6
1 5 7 4 5 6 11 12 13 14 15 12 12 11 11 13 13 14 15 13 12 11 11 11 9 7 7 8 8 8 7 7 6 6 6 7 7 7 7 6 5 4 3 2 2 3 4 4 3 3 2 2 2 2 3 3 3 2 2 1 2 0 1 1 1 1 1 0 1 1 0 2 3 4 4 4 4 4 4 4 6 7 9 8 6
7 1 3 1 1 2 5 5 7 9 10 12 14 15 16 14 12 13 12 10 11 12 11 10 9 8 8 8 7 7 8 9 9 9 8 6 6 6 6 6 4 3 4 3 4 3 3 3 3 2 2 2 1 1 1 1 1 1 1 2 2 0 1 0 0 0 0 0 1 1 1 1 2 2 3 4 4 4 4 4 5 7 8 9 8
6 7 3 2 6 4 4 3 1 3 5 7 12 12 11 11 13 14 12 13 12 11 11 10 10 9 8 8 8 9 10 9 8 9 7 7 5 5 4 5 5 5 5 4 4 4 3 3 3 1 1 1 1 1 0 0 0 1 1 1 2 0 0 0 1 1 1 1 1 1 1 2 2 2 3 3 3 3 4 4 5 5 6 8 8
9 8 7 7 1 5 4 2 1 2 4 3 3 5 4 5 8 11 15 15 14 12 10 9 9 9 9 10 10 8 7 7 7 7 7 7 7 7 6 6 4 4 5 5 4 4 4 3 3 1 0 1 1 2 1 2 1 2 2 2 2 1 0 1 1 0 1 1 1 2 2 2 2 2 2 3 3 3 4 4 4 4 4 5 8
9 9 9 8 7 2 5 7 6 5 4 4 4 4 6 5 5 7 6 5 5 8 9 10 10 9 9 7 7 8 8 8 7 8 8 8 8 7 6 5 7 5 5 5 5 4 4 3 1 0 0 1 1 3 2 3 3 2 2 3 3 1 1 2 3 1 2 2 2 2 3 3 3 2 3 3 3 3 3 4 4 4 4 4 5
8 9 9 11 9 9 5 3 4 5 5 4 5 6 6 4 6 6 8 8 9 10 10 11 9 10 9 10 10 8 8 7 7 8 9 8 7 7 8 7 5 6 6 5 5 4 4 3 1 0 1 1 2 4 3 2 3 3 3 3 3 3 3 3 3 3 2 3 3 3 3 3 3 3 3 3 3 3 2 3 3 4 5 4 5
5 6 8 9 10 9 8 3 0 3 4 6 7 6 6 8 10 10 9 8 9 9 10 10 9 9 11 11 10 9 9 8 9 8 8 8 8 8 7 6 7 6 6 6 5 4 4 3 2 1 1 1 2 2 3 3 3 4 4 3 3 3 4 4 4 4 4 4 3 4 4 4 4 4 3 3 3 3 3 3 3 4 5 5 4
5 6 7 7 7 7 7 5 4 3 3 4 5 7 9 9 8 7 9 11 11 11 10 9 9 10 12 11 10 9 8 9 10 9 9 9 8 7 7 8 7 6 4 6 6 5 5 4 3 2 1 1 1 1 1 1 1 1 3 4 3 3 4 5 5 5 5 4 5 4 5 4 3 4 4 3 3 3 2 3 4 4 5 5 4
4 5 5 5 6 6 9 8 7 4 2 2 4 4 4 4 6 6 9 11 10 10 10 10 10 11 11 9 10 9 8 9 10 9 9 8 8 7 7 7 7 6 7 4 6 6 5 4 4 2 1 1 1 1 1 0 1 1 2 3 3 3 3 4 5 5 6 5 5 5 5 4 4 4 4 4 4 3 3 4 4 4 4 4 4
6 7 7 8 9 9 7 7 7 7 5 3 2 3 4 5 6 8 10 12 10 5 6 9 10 11 10 10 10 9 10 10 10 8 9 8 8 8 7 8 7 7 6 6 4 4 4 4 5 4 3 3 3 2 1 1 1 1 2 2 3 3 3 4 4 5 6 6 5 5 5 4 4 5 5 5 4 4 6 6 6 5 4 4 4
6 6 8 7 5 5 7 8 8 9 7 4 4 4 4 4 5 5 8 7 6 6 8 9 10 11 11 11 11 9 11 12 10 8 9 8 8 8 7 6 8 7 5 5 6 4 5 5 4 4 4 4 3 3 3 2 2 1 2 2 2 3 3 4 4 4 4 5 6 6 5 5 6 7 7 6 5 7 7 6 6 6 6 5 4
5 5 4 4 7 6 4 6 7 8 9 8 6 4 3 4 5 4 4 5 5 4 6 8 10 11 11 12 12 12 12 11 10 9 7 7 8 8 8 8 6 7 6 5 4 5 4 5 4 4 4 4 4 3 3 2 2 2 2 2 3 3 4 4 4 4 4 4 4 5 5 5 6 6 7 7 7 7 6 7 6 6 5 5 5
5 7 7 5 4 5 5 5 6 8 9 9 8 7 5 4 5 5 4 5 5 4 5 6 5 7 9 11 12 12 11 10 8 8 8 8 7 8 7 6 6 6 6 5 5 5 4 4 5 5 4 3 3 2 2 2 2 2 2 3 4 4 5 4 5 5 5 5 5 6 6 6 7 7 7 8 7 8 6 7 6 5 6 7 7
6 4 4 5 5 5 6 6 5 5 7 8 9 10 10 8 5 5 4 5 5 5 6 6 4 4 4 4 5 3 2 6 8 9 10 9 8 8 7 7 6 6 6 6 5 5 5 4 4 4 4 4 4 2 1 1 2 3 2 4 4 5 6 6 6 6 6 6 6 6 6 7 8 11 13 11 10 9 7 8 7 5 7 8 8
5 4 3 1 1 1 2 3 5 5 4 5 6 7 8 9 10 7 5 5 4 5 5 4 4 4 2 2 3 3 2 4 7 8 8 9 8 7 7 7 6 6 6 5 5 4 5 5 5 4 4 3 2 1 1 3 3 2 4 4 5 5 5 6 6 7 6 6 7 6 7 12 14 14 13 13 13 13 12 10 9 9 9 9 9
4 5 5 4 3 1 1 2 4 4 4 4 4 5 5 8 9 9 8 5 3 4 5 7 7 6 7 7 8 7 6 5 5 7 5 5 7 6 6 6 6 6 6 5 5 4 4 4 6 5 4 2 1 0 1 3 5 7 4 4 4 5 5 6 6 6 7 7 6 6 6 8 11 11 11 13 13 13 13 13 14 14 12 11 10
5 5 5 6 6 5 5 4 4 4 4 4 5 4 4 5 6 8 10 5 4 4 6 7 7 7 8 9 9 10 10 11 11 12 13 10 8 7 6 6 6 6 5 4 4 4 5 5 5 4 3 1 0 2 2 4 6 7 7 5 4 5 5 5 6 6 6 6 7 7 6 6 7 8 9 8 11 13 14 15 15 15 15 15 14
6 7 7 7 7 6 6 7 6 7 6 5 4 5 5 6 7 7 7 8 5 6 6 6 6 7 8 9 9 10 11 11 11 10 10 10 9 8 7 7 7 5 5 5 5 5 5 4 5 5 3 2 1 4 5 6 7 7 9 8 5 5 6 6 7 7 7 7 7 8 8 7 6 11 12 9 8 9 12 15 15 16 17 17 17
5 5 5 6 7 7 7 6 7 8 7 6 5 6 8 7 8 6 6 8 8 8 7 8 7 8 8 9 10 11 11 10 9 9 9 8 8 8 7 6 7 6 6 5 5 5 4 4 4 4 3 2 2 5 7 8 7 9 10 9 5 6 7 7 8 8 8 8 8 9 9 9 6 7 7 8 8 9 9 10 10 10 10 12 15
6 7 7 7 7 8 7 8 8 8 8 8 10 7 8 9 6 7 7 7 7 8 9 9 8 9 8 8 9 10 9 9 9 11 12 11 11 9 9 8 9 9 8 8 7 6 5 5 4 4 3 3 3 7 8 8 8 9 11 10 6 6 7 7 8 8 9 9 9 9 9 10 9 8 7 8 9 9 9 10 10 10 10 10 10
6 6 7 7 8 8 8 9 7 8 9 8 11 11 10 12 9 8 8 7 8 8 9 9 9 9 9 10 10 9 11 13 13 12 12 12 10 10 9 7 7 6 6 6 4 5 5 5 5 4 3 3 4 7 7 8 10 11 13 8 6 7 8 8 8 8 8 8 8 9 9 10 10 9 10 13 13 10 10 11 12 11 11 11 11
6 5 7 7 7 7 8 7 8 8 10 11 11 11 11 12 12 10 8 8 8 9 10 10 10 10 10 10 10 11 12 12 12 12 11 10 9 7 7 7 8 8 8 7 7 5 5 5 4 3 3 3 3 5 7 9 10 13 10 7 7 8 7 8 9 8 8 8 8 8 9 9 10 10 11 13 14 13 11 12 12 12 11 11 12
6 6 5 5 6 6 7 8 10 10 10 11 12 11 11 12 12 10 9 9 9 10 9 8 10 10 10 10 9 8 10 11 11 13 12 10 8 7 7 7 9 8 7 7 6 5 4 4 4 4 3 3 3 5 8 10 12 13 12 9 7 8 9 8 9 8 7 8 8 15 15 11 11 11 12 13 13 11 11 11 11 12 13 12 12
5 5 6 6 7 7 9 9 9 11 11 11 11 10 10 12 12 11 10 11 11 10 8 8 9 9 9 9 9 10 11 11 11 11 12 12 10 9 7 6 7 7 6 5 5 5 4 3 3 2 2 1 2 4 8 10 12 13 11 7 8 8 9 9 9 9 7 8 8 10 16 16 14 14 16 15 15 13 12 12 11 12 13 13 10
6 5 6 7 7 8 9 9 10 12 11 10 9 8 9 10 11 10 11 13 12 10 9 8 8 7 5 6 7 7 6 9 10 9 7 10 8 8 7 7 6 6 6 5 4 4 4 3 2 1 0 0 2 4 5 11 12 13 13 10 7 8 10 10 9 10 10 8 8 8 10 13 15 16 17 19 19 18 15 13 12 14 16 18 8
7 8 6 7 8 7 9 11 10 11 10 9 8 8 9 9 9 11 13 13 12 10 8 7 6 7 7 8 8 9 8 8 8 10 9 8 8 8 7 6 6 3 4 4 3 3 3 1 0 0 1 2 2 4 6 11 12 13 14 13 8 8 9 10 10 10 9 10 9 8 8 12 18 19 20 20 20 19 19 16 13 12 11 10 9
6 8 7 8 8 7 8 9 9 10 9 8 8 10 9 8 9 12 13 12 12 7 5 7 9 9 10 11 12 12 12 8 6 9 9 8 5 7 7 6 6 6 4 4 3 3 2 0 1 1 1 3 4 6 6 8 12 14 15 16 10 9 10 11 12 9 9 9 9 9 8 11 15 17 18 19 20 20 21 15 16 17 18 16 14
8 8 7 7 9 9 9 9 8 8 8 8 9 10 9 9 12 14 11 10 5 7 9 10 11 12 12 12 11 11 9 8 7 9 10 7 5 5 4 5 5 4 4 4 4 3 2 0 2 3 2 3 4 5 8 8 11 14 16 16 16 14 15 13 12 13 11 11 10 12 13 18 20 21 21 22 22 22 20 17 21 21 21 21 19
8 8 10 8 9 9 10 9 8 8 8 8 8 8 9 11 14 11 7 6 9 11 13 13 12 12 13 13 13 10 6 7 9 10 9 9 6 4 4 5 5 6 6 3 2 2 1 0 2 5 6 5 5 5 7 11 11 14 15 17 17 17 17 12 12 11 11 10 10 10 12 17 19 20 22 21 21 20 17 21 21 23 22 21 15
9 11 10 8 9 10 10 9 8 9 9 8 4 6 7 8 7 4 7 9 11 13 15 15 14 13 11 8 8 9 9 8 8 9 8 7 5 5 5 2 4 4 4 3 2 2 2 2 2 5 6 7 6 6 6 9 13 15 16 16 17 17 17 17 14 13 13 12 14 21 23 24 24 24 26 26 23 24 26 25 26 25 24 15 14
9 9 9 9 9 9 9 10 10 9 8 4 3 2 4 5 4 2 3 9 14 15 14 14 14 13 12 11 12 10 9 7 6 7 7 7 8 6 6 5 3 3 3 2 2 2 2 3 5 6 6 7 7 6 8 8 7 9 11 13 16 16 18 18 18 17 21 24 24 24 25 25 24 22 18 15 13 14 19 23 24 24 16 14 14
10 10 8 9 8 9 9 9 10 9 7 2 1 3 3 4 5 4 4 9 11 14 15 15 16 13 8 7 9 7 6 5 5 6 5 5 6 5 5 4 3 3 2 1 1 3 4 4 6 7 6 6 6 7 8 8 7 6 7 9 10 10 13 15 13 11 13 13 15 15 14 17 18 23 24 23 23 21 18 17 14 14 13 13 13
9 9 9 9 8 8 8 7 8 8 3 0 2 4 5 5 6 6 7 11 13 13 12 9 8 7 8 8 7 8 8 6 6 7 6 5 4 5 6 5 5 4 3 3 4 4 5 6 7 7 6 6 7 7 8 8 7 8 9 9 9 10 10 9 10 10 11 13 14 14 16 13 13 13 13 11 11 11 12 13 12 12 12 13 15
9 8 8 8 7 8 6 6 7 3 3 2 5 5 5 6 5 7 10 13 12 10 9 8 7 7 7 7 7 6 6 6 6 5 3 4 6 5 4 1 1 4 6 5 5 5 5 6 6 6 6 6 7 8 9 7 10 14 13 12 10 10 10 10 13 17 15 12 10 10 9 10 9 10 10 10 10 10 10 11 13 12 11 12 12
8 7 8 9 8 7 6 6 5 3 6 6 8 6 6 6 4 7 8 10 10 11 11 10 8 7 7 7 6 6 6 6 6 6 6 4 4 4 4 2 2 6 8 6 6 5 6 6 5 7 6 7 8 9 12 16 17 17 18 18 17 18 18 16 18 22 15 11 10 9 9 10 10 9 10 10 10 9 10 10 10 12 12 11 11
8 8 10 9 8 6 6 5 1 7 7 9 9 7 6 2 2 2 2 4 7 9 8 7 7 7 8 7 6 6 6 6 6 6 5 7 4 1 1 4 4 4 6 9 9 11 9 7 7 6 7 10 12 13 16 17 18 19 19 18 18 18 19 20 20 15 10 9 9 9 10 9 10 9 10 10 10 10 10 10 10 9 9 11 11
Wind_Direction
186 186 190 193 180 174 157 153 154 150 156 152 144 148 150 154 151 166 167 145 133 131 122 123 112 87 64 91 121 109 106 73 64 49 76 81 87 86 101 103 90 65 47 55 54 78 99 83 64 351 351 107 183 172 102 126 78 84 57 360 237 242 340 360 321 331 360 330 352 347 325 240 234 200 198 201 201 204 203 204 217 200 211 210 214
150 194 209 184 163 175 163 164 158 156 180 160 156 161 157 149 162 169 155 158 151 152 150 136 161 167 158 164 144 149 120 116 108 82 98 84 71 88 82 73 69 72 73 72 72 79 75 63 77 76 44 15 5 59 99 159 168 90 77 154 250 197 211 108 282 339 324 281 336 334 334 317 271 210 217 214 206 200 190 201 208 215 215 215 210
177 205 203 197 177 179 177 179 184 169 164 169 161 151 153 158 172 170 167 165 174 157 134 157 156 144 133 158 145 134 288 233 135 105 106 96 53 39 60 71 84 72 72 75 76 63 77 80 61 50 35 26 44 42 39 23 39 83 132 213 323 119 239 333 25 113 239 156 152 312 308 335 316 335 276 243 216 200 192 204 203 211 219 215 208
187 196 202 191 177 181 183 190 183 162 163 172 165 159 159 169 176 174 175 174 171 181 152 161 122 112 69 111 88 110 151 120 87 69 69 85 73 26 22 100 84 77 76 86 80 72 81 85 83 63 49 35 66 56 43 41 31 43 79 278 288 40 94 142 137 96 56 13 325 190 247 111 316 297 302 280 220 218 197 206 200 211 215 216 199
190 196 202 196 186 192 191 182 166 177 181 175 168 167 170 177 181 180 175 178 182 163 137 129 106 90 92 73 79 71 47 42 59 15 17 117 99 76 48 30 79 82 78 85 89 83 69 83 85 77 64 43 63 66 58 49 45 48 47 48 11 2 354 9 0 83 305 146 143 357 319 306 227 281 347 286 310 212 225 219 207 211 210 206 204
193 191 195 197 199 181 161 177 187 187 186 183 175 171 170 173 176 180 175 174 179 162 154 144 145 139 131 124 124 105 113 119 171 201 227 177 181 200 332 31 80 76 35 78 95 96 86 87 89 87 77 57 60 78 73 52 40 49 42 55 37 18 343 346 13 33 347 265 165 210 132 206 323 329 358 291 321 237 290 257 231 230 223 211 209
208 211 205 203 201 168 184 192 195 193 188 164 175 178 177 172 176 180 178 178 175 162 167 147 145 151 157 161 162 164 163 221 236 240 188 222 211 161 180 33 16 109 65 76 91 86 90 77 80 84 82 69 63 59 54 58 54 45 39 53 48 37 38 45 22 11 330 4 33 238 250 217 212 276 275 336 324 319 349 351 311 258 225 223 230
188 196 206 207 194 183 188 196 192 193 163 168 180 181 177 175 176 184 181 177 176 161 173 168 155 161 152 153 159 159 171 191 202 210 213 207 137 182 42 28 354 8 103 65 100 112 97 72 70 72 71 73 69 63 60 49 55 42 49 59 50 46 50 57 37 24 26 355 350 340 331 320 278 254 245 237 268 289 298 302 272 281 313 255 236
188 193 203 206 196 198 198 193 192 161 174 179 183 177 176 179 178 175 185 178 178 169 173 190 164 166 160 156 161 183 174 181 171 168 166 183 145 72 106 320 356 14 24 73 67 108 112 111 88 71 70 67 77 74 65 58 58 55 44 43 45 41 39 38 56 34 29 16 349 359 321 277 271 260 267 268 281 287 282 273 294 323 313 280 275
194 196 199 204 202 199 195 183 164 189 175 170 168 167 177 176 179 178 189 189 182 177 180 185 178 157 156 167 163 173 161 128 137 160 180 170 173 214 265 323 347 7 9 20 31 57 100 107 100 91 89 84 78 84 80 69 63 62 61 65 59 59 38 41 46 39 45 16 9 337 0 346 333 294 266 273 250 253 280 292 309 319 309 295 315
193 200 204 208 202 174 153 179 185 157 167 173 174 177 179 185 186 184 189 188 186 182 180 186 181 172 168 170 166 166 168 154 142 176 170 155 183 226 241 242 340 303 346 11 18 49 75 71 92 98 91 82 84 80 76 86 86 90 84 73 66 71 57 54 38 33 37 34 22 16 10 8 346 328 328 324 306 284 279 278 279 262 265 285 284
194 195 206 194 118 153 164 175 174 179 169 182 187 182 187 188 185 186 187 190 190 189 186 189 180 184 173 168 168 170 164 167 173 182 188 185 192 204 233 322 284 325 17 359 351 11 56 48 56 68 70 76 78 94 91 93 95 88 73 72 74 74 70 67 62 40 30 35 27 16 15 355 351 347 339 327 326 311 298 297 295 299 277 254 282
197 196 194 171 178 165 178 179 168 180 192 192 190 190 186 187 187 187 194 190 190 188 190 191 187 186 177 174 172 165 171 175 182 184 185 184 189 196 188 213 257 290 267 206 267 235 109 92 82 82 71 75 92 76 75 81 86 91 96 89 78 65 67 73 64 45 52 47 8 2 10 8 348 332 330 330 322 321 319 313 301 296 285 291 286
307 288 204 182 181 184 181 179 186 192 196 196 192 187 185 188 192 192 197 189 185 185 190 190 200 193 184 177 173 165 176 182 188 187 189 188 183 190 189 191 194 208 216 217 214 159 127 137 121 119 128 133 97 88 80 86 86 86 89 80 72 107 93 80 82 63 52 41 23 10 353 347 334 331 326 328 332 332 330 325 321 307 285 281 286
160 188 251 217 193 187 182 186 192 196 198 196 191 192 182 188 192 198 196 191 187 189 188 194 198 199 193 185 175 173 176 184 194 191 182 184 194 189 198 186 185 204 195 227 189 160 140 132 136 139 156 155 132 91 85 86 88 54 70 87 79 115 107 108 101 94 49 21 10 353 338 338 333 327 327 317 315 309 309 315 319 317 307 288 282
21 164 192 229 267 224 195 192 197 198 198 193 193 189 189 194 193 195 194 190 191 190 193 192 197 196 197 186 186 179 179 181 189 193 194 190 187 187 193 191 197 183 201 170 178 141 144 127 116 128 128 93 70 62 43 35 34 24 353 31 336 135 99 82 133 104 66 351 288 279 16 311 315 320 317 306 308 301 299 297 305 307 309 302 304
22 55 157 172 216 247 273 252 224 205 192 197 197 195 196 190 188 194 196 193 193 195 193 192 193 191 202 197 185 182 179 182 190 195 193 194 190 193 186 194 177 173 174 173 151 157 143 141 130 143 140 124 85 70 47 28 33 12 344 334 321 92 125 127 171 105 224 204 269 276 272 249 281 299 310 314 313 316 312 305 304 307 309 299 299
34 44 34 188 183 208 208 200 241 316 288 239 214 205 199 192 191 190 190 192 197 195 193 193 192 196 198 201 196 190 189 193 190 191 186 180 194 191 179 154 184 183 159 159 145 145 150 140 144 122 53 33 14 346 56 72 74 344 283 269 239 166 77 161 175 168 241 237 235 272 260 279 262 280 293 303 312 309 308 313 315 314 314 304 299
21 19 33 29 311 199 179 196 190 177 183 200 293 305 283 222 205 197 197 197 192 192 192 192 193 196 197 198 194 197 200 195 194 186 176 183 187 187 184 187 163 162 150 144 144 144 142 127 113 106 26 339 346 318 341 325 17 319 301 296 298 12 104 305 269 224 246 211 234 248 255 254 247 260 274 283 286 295 291 293 297 303 306 307 307
11 10 17 17 25 315 213 183 186 191 204 205 190 180 216 230 233 222 216 196 185 192 192 197 197 195 200 199 202 196 196 193 188 180 185 190 186 181 179 170 184 168 163 156 151 149 148 135 113 107 32 356 320 314 326 306 342 324 322 324 303 343 316 290 281 273 255 256 261 263 257 256 251 244 264 272 277 278 285 300 302 301 292 282 292
17 13 9 13 9 3 331 254 184 166 160 168 185 197 197 181 217 222 210 200 195 197 192 203 191 199 195 198 197 194 198 193 186 188 186 187 180 179 180 180 159 171 158 157 155 152 149 146 129 141 199 258 282 289 298 324 331 314 312 298 301 316 310 298 306 304 295 282 278 279 278 267 265 271 263 263 265 271 296 297 301 304 300 302 300
30 25 23 19 12 11 359 341 328 165 185 184 184 176 187 205 210 207 207 205 202 198 200 200 195 196 199 201 199 196 193 186 188 189 189 183 178 178 174 159 170 175 161 160 159 157 150 146 154 191 229 268 292 299 323 356 326 325 314 320 317 315 311 302 314 303 300 290 281 287 283 283 272 260 263 264 253 268 284 304 299 294 297 295 295
58 55 42 27 31 22 30 19 351 323 257 213 193 195 205 216 218 208 200 209 202 203 200 196 196 198 205 203 196 196 190 191 190 190 188 182 180 173 168 165 169 165 171 158 163 160 161 154 158 186 191 222 258 273 288 292 304 300 302 311 309 311 302 300 302 292 290 290 293 285 287 281 278 274 269 264 258 258 264 282 281 276 278 282 294
51 53 48 34 30 26 23 13 6 353 307 263 228 212 207 202 206 208 217 221 212 204 197 194 197 205 209 200 200 196 189 193 195 193 188 182 174 171 168 166 165 158 163 175 160 163 153 150 161 165 163 182 195 225 257 192 232 240 270 282 300 302 295 290 288 288 288 286 277 283 281 280 273 280 285 284 268 259 270 276 275 267 264 276 287
45 43 38 35 29 19 9 0 354 356 348 317 312 265 231 217 200 204 217 224 224 202 193 200 201 206 203 204 205 192 193 197 199 191 188 177 172 167 168 164 156 161 166 159 160 145 142 148 159 164 168 179 194 183 190 259 259 222 224 253 268 275 279 281 281 282 282 281 278 271 276 276 281 287 290 282 271 279 285 284 282 283 278 275 289
44 36 40 44 35 20 12 359 350 346 348 332 290 273 270 266 249 235 230 232 221 195 199 200 204 203 204 204 204 194 198 199 195 190 186 177 169 166 164 162 159 160 161 164 158 160 154 159 150 157 163 175 172 168 176 203 221 225 224 232 247 259 268 274 279 283 284 283 284 283 279 276 281 283 284 281 278 278 279 275 275 274 272 270 271
28 40 48 51 38 29 15 5 352 345 342 338 346 328 289 273 271 266 264 256 247 229 220 214 211 209 208 206 201 200 198 194 188 181 171 172 169 163 160 160 162 153 154 158 163 153 156 144 156 152 166 172 178 175 177 195 219 228 239 246 263 265 264 264 261 265 270 275 281 291 296 296 291 288 287 288 288 281 277 277 272 275 276 279 276
26 33 33 36 21 14 16 6 4 353 345 349 341 343 349 320 291 277 242 226 226 223 234 239 246 243 230 219 210 204 195 188 174 161 165 170 164 159 160 153 145 145 153 160 161 158 165 147 160 165 172 155 141 150 185 203 217 232 241 260 260 266 266 263 264 264 266 268 268 273 280 287 290 291 288 285 284 284 282 277 273 279 285 287 282
34 21 25 27 20 4 354 354 352 355 354 346 343 339 341 342 329 301 268 243 224 211 215 218 214 230 265 301 318 313 186 163 167 166 160 162 162 154 150 150 151 148 156 163 161 150 143 136 133 138 133 139 143 177 195 208 252 279 271 274 275 272 270 271 269 266 262 261 262 262 267 267 269 273 279 286 286 286 290 286 279 277 281 282 282
8 351 347 2 5 334 320 319 329 334 332 335 334 331 332 332 328 324 304 272 222 218 212 203 192 191 164 136 149 166 202 190 173 165 156 146 147 147 149 152 153 152 154 156 152 150 144 146 130 118 124 129 144 185 229 274 303 297 296 291 284 278 274 273 276 277 272 265 262 262 260 263 266 268 269 272 276 277 274 270 278 278 275 274 272
345 345 340 327 310 277 265 292 302 305 298 301 301 308 317 325 321 318 310 296 253 205 198 193 193 169 159 156 155 158 156 149 129 108 113 141 146 146 154 151 146 147 152 154 139 127 124 128 133 135 124 118 137 198 305 327 312 308 302 290 284 282 278 276 273 273 275 273 271 265 263 264 267 269 269 266 266 267 267 272 274 275 271 266 270
341 338 338 336 333 328 324 308 292 277 276 284 290 281 292 289 293 302 302 297 271 233 213 214 195 185 183 174 170 165 162 167 175 166 162 161 154 154 152 151 145 143 146 127 114 128 134 132 120 115 119 147 166 237 291 300 300 298 295 288 281 277 274 267 264 264 263 264 265 263 258 254 256 253 257 260 261 260 261 262 261 261 262 262 257
331 332 331 324 318 311 308 314 315 316 310 293 270 283 277 268 270 271 288 295 262 243 239 226 203 194 191 182 177 175 180 177 175 162 147 147 156 153 149 150 157 147 122 119 136 129 132 130 125 129 137 170 208 245 257 267 273 277 281 283 275 269 269 269 267 265 264 265 263 264 263 251 245 251 262 265 264 266 264 263 262 263 261 257 257
312 306 304 305 306 303 298 294 294 294 295 293 291 281 281 277 274 272 272 277 279 263 240 233 212 204 196 189 182 181 180 173 162 147 139 137 142 157 160 148 128 120 123 127 135 132 138 137 143 148 170 182 222 247 247 254 262 273 280 282 275 274 272 271 273 270 269 267 264 265 268 267 254 255 255 260 263 264 266 268 266 263 262 260 256
305 310 308 305 298 294 296 303 304 303 305 314 309 303 295 291 276 272 262 263 264 264 255 240 224 212 202 197 188 185 167 154 152 145 146 157 166 159 153 152 145 147 147 150 150 147 159 157 161 165 160 197 232 247 250 262 274 281 285 288 280 274 272 269 266 264 262 263 263 263 263 265 264 257 249 249 256 258 262 264 265 263 261 262 258
283 285 289 291 294 290 289 290 294 303 301 301 298 300 300 292 291 277 276 264 260 256 252 245 234 219 207 204 192 173 163 163 160 156 158 159 159 157 149 141 126 130 137 137 143 144 160 173 184 167 163 224 260 270 278 283 287 291 293 295 286 278 276 272 268 265 263 262 261 261 264 265 263 261 257 252 253 259 263 265 266 267 267 264 260
271 264 271 275 282 286 285 286 288 288 293 294 294 296 292 293 291 285 279 272 262 255 249 237 231 217 206 198 190 178 173 167 160 154 153 148 145 145 140 133 128 139 143 150 162 178 176 174 180 164 175 231 268 287 290 291 294 295 301 294 290 285 277 275 269 267 267 266 265 262 261 264 262 260 256 252 251 252 259 261 265 268 267 268 265
269 279 280 283 280 281 279 276 281 285 284 286 288 291 291 287 286 287 283 275 266 259 251 235 225 214 203 194 181 163 159 164 162 155 154 149 139 135 139 139 134 145 154 174 176 170 179 171 165 189 192 208 262 284 292 292 295 297 297 296 291 286 282 278 279 272 272 272 266 266 267 266 266 264 259 254 253 250 258 260 265 271 271 267 265
268 269 278 282 281 275 280 284 281 280 279 278 279 281 282 283 285 286 280 273 268 263 254 234 222 209 202 183 161 169 173 164 158 150 141 137 139 140 137 128 135 149 169 169 167 171 173 181 187 207 217 213 255 289 293 293 295 297 301 297 294 291 290 285 284 284 274 272 274 269 271 273 271 271 268 266 261 258 263 264 267 268 264 262 259
281 273 259 266 276 291 289 281 275 273 276 276 274 273 270 274 279 277 275 270 269 265 250 228 212 193 169 150 163 162 150 138 125 114 110 115 118 115 126 134 154 161 163 171 168 157 169 191 155 164 246 214 266 280 284 288 293 296 298 299 293 294 291 291 288 288 290 281 273 275 272 268 269 269 267 264 262 257 259 266 266 264 266 268 267
274 272 277 279 274 264 267 270 272 275 275 272 269 266 266 267 270 273 268 268 267 260 239 205 169 143 130 119 103 107 105 101 112 118 120 117 121 131 138 147 155 143 123 136 152 151 171 229 30 96 210 267 244 277 286 290 295 298 299 302 296 287 286 287 289 286 281 284 279 263 257 257 261 264 265 266 266 265 265 267 260 256 252 267 273
244 263 276 281 280 274 267 266 263 268 269 264 259 260 262 263 264 263 263 261 261 239 174 140 134 131 125 125 124 122 111 114 135 124 121 123 128 137 151 151 142 147 152 155 140 140 146 244 306 282 255 279 289 284 290 295 298 301 299 296 295 286 285 291 289 285 280 275 275 277 272 266 263 263 262 261 261 260 260 258 259 259 260 259 260
293 288 271 269 286 288 282 276 276 271 269 265 262 263 264 261 261 259 255 251 214 154 137 130 126 123 123 123 121 118 124 137 142 124 119 128 137 129 127 132 135 143 159 176 147 143 137 41 337 316 303 287 281 286 285 293 298 299 299 297 290 288 286 286 284 284 278 274 270 270 272 272 270 269 268 266 264 262 262 260 262 262 263 264 266
268 267 282 287 282 283 286 287 284 277 272 272 268 267 266 267 266 264 242 192 161 146 132 128 127 124 125 129 127 128 141 136 136 135 138 138 139 129 130 148 152 156 167 159 134 122 106 76 302 306 304 288 279 275 284 292 297 298 297 293 289 284 281 279 281 280 280 274 275 272 275 277 277 276 274 272 270 267 264 263 260 257 255 255 254
281 287 288 286 283 288 291 289 283 279 281 284 260 251 263 269 276 246 188 165 148 138 132 129 126 121 115 109 109 121 139 158 152 131 119 116 115 132 128 153 138 140 144 164 153 148 185 233 262 269 280 286 286 291 292 295 295 295 293 291 287 284 282 282 282 281 280 280 281 282 283 282 280 277 274 272 270 266 262 260 259 258 257 256 252
277 283 283 282 286 287 288 287 285 282 285 268 270 298 301 301 330 312 199 156 143 133 125 122 117 123 134 138 146 159 152 141 112 114 127 141 149 157 144 153 140 138 134 146 153 180 225 233 250 263 268 276 290 298 293 291 289 288 293 292 290 288 286 283 279 278 279 279 279 279 278 277 276 274 273 268 263 261 255 253 252 251 248 245 241
273 272 281 286 285 287 286 285 284 284 291 272 333 7 351 351 5 6 94 106 105 112 115 121 128 132 141 149 138 129 113 103 109 108 114 123 132 127 123 130 130 129 119 125 183 219 243 246 256 263 271 284 290 291 289 288 285 288 296 298 297 292 286 284 282 281 282 282 281 281 281 278 276 274 271 269 267 266 263 259 255 248 243 238 235
259 270 273 274 275 275 279 281 279 285 310 295 53 47 42 33 30 41 83 91 91 95 102 105 108 127 128 123 113 111 116 121 128 126 117 94 84 124 129 144 150 147 141 195 214 232 237 245 253 263 272 288 286 287 289 289 300 309 309 305 300 298 295 292 290 289 290 290 290 286 282 277 275 272 270 268 261 256 253 254 251 246 242 237 236
274 271 267 268 274 278 270 266 281 300 113 114 76 65 69 62 57 64 73 87 95 97 101 122 135 132 117 115 128 140 133 128 109 78 83 136 144 134 136 147 211 151 162 177 204 227 238 236 230 247 254 275 284 287 279 287 301 306 310 310 308 304 303 299 297 298 297 294 287 281 274 277 272 272 272 268 265 258 254 249 249 247 241 236 233
269 267 265 268 267 262 260 270 299 150 146 122 91 81 80 84 75 112 122 134 139 145 150 158 150 132 123 135 143 136 138 119 110 117 103 57 53 127 147 141 190 206 210 203 163 205 220 207 220 246 216 235 260 268 285 296 300 310 312 308 305 304 304 304 304 304 302 296 291 284 282 279 279 277 276 275 272 267 263 258 251 244 240 234 229
274 276 275 268 263 241 237 267 214 150 146 127 137 147 163 224 274 209 195 170 167 153 149 138 127 135 150 146 129 122 117 112 123 124 122 123 107 71 162 196 211 211 208 216 216 232 229 209 200 255 263 237 252 274 289 297 311 316 313 312 311 311 311 311 310 311 306 294 289 288 288 283 281 282 282 282 279 278 272 269 264 254 238 233 230